Location: Mascot Post Office (historical)
(40.2645°N, 99.5462°W)
Time: 02:39:03
(UTC+00:00)

Cosmos 2344 - Pass Details

Date: 14 July 2020
Orbit: 1249 x 2994 km, 63.3° (Epoch: 14 August)

Event Time Altitude Azimuth Distance (km) Brightness Sun altitude
Rises 03:15:34 0° 193° (SSW) 4,415 6.1 -11.4°
Reaches altitude 10° 03:18:35 10° 188° (S) 3,332 5.5 -11.8°
Maximum altitude 03:25:51 49° 116° (ESE) 1,575 3.7 -12.8°
Drops below altitude 10° 03:33:08 10° 44° (NE) 3,339 5.8 -13.8°
Sets 03:36:09 0° 39° (NE) 4,424 6.5 -14.2°
